Time,TemperatureF,DewpointF,PressureIn,WindDirection,WindDirectionDegrees,WindSpeedMPH,WindSpeedGustMPH,Humidity,HourlyPrecipIn,Conditions,Clouds,dailyrainin,SoftwareType,DateUTC
2013-03-10 00:04:00,46.9,35.7,30.22,SW,228,0.0,0.0,65,0.00,,,0.00,Wunderground v.1.15,2013-03-10 08:04:00,
2013-03-10 00:10:00,46.7,35.9,30.23,SW,228,0.0,0.0,66,0.00,,,0.00,Wunderground v.1.15,2013-03-10 08:10:00,
2013-03-10 00:16:00,46.8,35.3,30.23,SW,228,0.0,0.0,64,0.00,,,0.00,Wunderground v.1.15,2013-03-10 08:16:00,
2013-03-10 00:22:00,46.8,34.9,30.23,SW,228,0.0,0.0,63,0.00,,,0.00,Wunderground v.1.15,2013-03-10 08:22:00,
2013-03-10 00:28:00,46.7,35.2,30.23,SW,228,0.0,0.0,64,0.00,,,0.00,Wunderground v.1.15,2013-03-10 08:28:00,
2013-03-10 00:34:00,46.6,35.1,30.23,SW,228,0.0,2.0,64,0.00,,,0.00,Wunderground v.1.15,2013-03-10 08:34:00,
2013-03-10 00:40:00,46.4,35.3,30.23,SW,228,0.0,0.0,65,0.00,,,0.00,Wunderground v.1.15,2013-03-10 08:40:00,
2013-03-10 00:46:00,46.2,34.7,30.23,SW,228,0.0,0.0,64,0.00,,,0.00,Wunderground v.1.15,2013-03-10 08:46:00,
2013-03-10 00:52:00,46.0,34.1,30.23,SW,228,0.0,0.0,63,0.00,,,0.00,Wunderground v.1.15,2013-03-10 08:52:00,
2013-03-10 00:58:00,45.9,34.4,30.24,SSE,165,0.0,2.0,64,0.00,,,0.00,Wunderground v.1.15,2013-03-10 08:58:00,
2013-03-10 01:04:00,46.0,34.9,30.24,East,81,0.0,0.0,65,0.00,,,0.00,Wunderground v.1.15,2013-03-10 09:04:00,
2013-03-10 01:10:00,46.1,34.2,30.25,East,89,0.0,0.0,63,0.00,,,0.00,Wunderground v.1.15,2013-03-10 09:10:00,
2013-03-10 01:16:00,46.1,34.2,30.25,East,89,0.0,0.0,63,0.00,,,0.00,Wunderground v.1.15,2013-03-10 09:16:00,
2013-03-10 01:22:00,45.9,34.4,30.25,East,89,0.0,0.0,64,0.00,,,0.00,Wunderground v.1.15,2013-03-10 09:22:00,
2013-03-10 01:28:00,45.6,33.7,30.25,East,89,0.0,0.0,63,0.00,,,0.00,Wunderground v.1.15,2013-03-10 09:28:00,
2013-03-10 01:34:00,45.3,34.2,30.25,East,89,0.0,0.0,65,0.00,,,0.00,Wunderground v.1.15,2013-03-10 09:34:00,
2013-03-10 01:40:00,45.0,33.9,30.26,SE,131,0.0,0.0,65,0.00,,,0.00,Wunderground v.1.15,2013-03-10 09:40:00,
2013-03-10 01:46:00,44.7,34.0,30.25,NE,52,0.0,0.0,66,0.00,,,0.00,Wunderground v.1.15,2013-03-10 09:46:00,
2013-03-10 01:52:00,44.5,33.5,30.26,NE,52,0.0,0.0,65,0.00,,,0.00,Wunderground v.1.15,2013-03-10 09:52:00,
2013-03-10 01:58:00,44.2,33.6,30.25,NE,52,0.0,0.0,66,0.00,,,0.00,Wunderground v.1.15,2013-03-10 09:58:00,
2013-03-10 03:04:00,43.8,33.6,30.25,NE,52,0.0,0.0,67,0.00,,,0.00,Wunderground v.1.15,2013-03-10 10:04:00,
2013-03-10 03:10:00,43.5,33.6,30.25,NE,52,0.0,0.0,68,0.00,,,0.00,Wunderground v.1.15,2013-03-10 10:10:00,
2013-03-10 03:16:00,43.3,33.4,30.25,NE,52,0.0,0.0,68,0.00,,,0.00,Wunderground v.1.15,2013-03-10 10:16:00,
2013-03-10 03:22:00,43.0,33.9,30.25,NE,52,0.0,0.0,70,0.00,,,0.00,Wunderground v.1.15,2013-03-10 10:22:00,
2013-03-10 03:28:00,42.7,33.2,30.25,NE,52,0.0,0.0,69,0.00,,,0.00,Wunderground v.1.15,2013-03-10 10:28:00,
2013-03-10 03:34:00,42.5,33.8,30.26,NE,52,0.0,0.0,71,0.00,,,0.00,Wunderground v.1.15,2013-03-10 10:34:00,
2013-03-10 03:40:00,42.2,33.1,30.26,NE,52,0.0,0.0,70,0.00,,,0.00,Wunderground v.1.15,2013-03-10 10:40:00,
2013-03-10 03:46:00,41.9,33.2,30.26,East,88,0.0,0.0,71,0.00,,,0.00,Wunderground v.1.15,2013-03-10 10:46:00,
2013-03-10 03:52:00,41.7,33.7,30.26,East,88,0.0,0.0,73,0.00,,,0.00,Wunderground v.1.15,2013-03-10 10:52:00,
2013-03-10 03:58:00,41.5,32.8,30.26,East,88,0.0,0.0,71,0.00,,,0.00,Wunderground v.1.15,2013-03-10 10:58:00,
2013-03-10 04:04:00,41.4,33.4,30.26,East,88,0.0,0.0,73,0.00,,,0.00,Wunderground v.1.15,2013-03-10 11:04:00,
2013-03-10 04:10:00,41.2,33.2,30.26,East,88,0.0,0.0,73,0.00,,,0.00,Wunderground v.1.15,2013-03-10 11:10:00,
2013-03-10 04:16:00,41.1,33.4,30.27,East,88,0.0,0.0,74,0.00,,,0.00,Wunderground v.1.15,2013-03-10 11:16:00,
2013-03-10 04:22:00,41.0,33.3,30.26,East,88,0.0,0.0,74,0.00,,,0.00,Wunderground v.1.15,2013-03-10 11:22:00,
2013-03-10 04:28:00,40.8,32.5,30.26,East,88,0.0,0.0,72,0.00,,,0.00,Wunderground v.1.15,2013-03-10 11:28:00,
2013-03-10 04:34:00,40.7,32.7,30.26,East,88,0.0,0.0,73,0.00,,,0.00,Wunderground v.1.15,2013-03-10 11:34:00,
2013-03-10 04:40:00,40.8,32.1,30.26,East,88,0.0,0.0,71,0.00,,,0.00,Wunderground v.1.15,2013-03-10 11:40:00,
2013-03-10 04:46:00,40.8,32.5,30.26,East,88,0.0,0.0,72,0.00,,,0.00,Wunderground v.1.15,2013-03-10 11:46:00,
2013-03-10 04:52:00,40.7,32.7,30.26,East,88,0.0,0.0,73,0.00,,,0.00,Wunderground v.1.15,2013-03-10 11:52:00,
2013-03-10 04:58:00,40.5,32.9,30.26,East,88,0.0,0.0,74,0.00,,,0.00,Wunderground v.1.15,2013-03-10 11:58:00,
2013-03-10 05:06:00,40.3,32.7,30.26,East,88,0.0,0.0,74,0.00,,,0.00,Wunderground v.1.15,2013-03-10 12:06:00,
2013-03-10 05:12:00,40.2,32.6,30.26,East,88,0.0,0.0,74,0.00,,,0.00,Wunderground v.1.15,2013-03-10 12:12:00,
2013-03-10 05:18:00,40.2,32.2,30.27,East,88,0.0,0.0,73,0.00,,,0.00,Wunderground v.1.15,2013-03-10 12:18:00,
2013-03-10 05:24:00,40.2,32.2,30.27,East,88,0.0,0.0,73,0.00,,,0.00,Wunderground v.1.15,2013-03-10 12:24:00,
2013-03-10 05:30:00,40.2,31.9,30.27,East,88,0.0,0.0,72,0.00,,,0.00,Wunderground v.1.15,2013-03-10 12:30:00,
2013-03-10 05:36:00,40.1,31.8,30.27,East,88,0.0,0.0,72,0.00,,,0.00,Wunderground v.1.15,2013-03-10 12:36:00,
2013-03-10 05:42:00,40.0,31.7,30.27,East,88,0.0,0.0,72,0.00,,,0.00,Wunderground v.1.15,2013-03-10 12:42:00,
2013-03-10 05:48:00,39.9,31.9,30.27,East,88,0.0,0.0,73,0.00,,,0.00,Wunderground v.1.15,2013-03-10 12:48:00,
2013-03-10 05:54:00,39.9,32.3,30.27,East,88,0.0,0.0,74,0.00,,,0.00,Wunderground v.1.15,2013-03-10 12:54:00,
2013-03-10 06:00:00,39.9,32.3,30.27,East,88,0.0,0.0,74,0.00,,,0.00,Wunderground v.1.15,2013-03-10 13:00:00,
2013-03-10 06:06:00,39.9,32.3,30.28,East,88,0.0,0.0,74,0.00,,,0.00,Wunderground v.1.15,2013-03-10 13:06:00,
2013-03-10 06:12:00,39.8,32.5,30.28,East,88,0.0,0.0,75,0.00,,,0.00,Wunderground v.1.15,2013-03-10 13:12:00,
2013-03-10 06:18:00,39.8,32.2,30.28,East,88,0.0,0.0,74,0.00,,,0.00,Wunderground v.1.15,2013-03-10 13:18:00,
2013-03-10 06:24:00,39.7,32.4,30.28,East,88,0.0,0.0,75,0.00,,,0.00,Wunderground v.1.15,2013-03-10 13:24:00,
2013-03-10 06:30:00,39.6,32.3,30.29,East,88,0.0,0.0,75,0.00,,,0.00,Wunderground v.1.15,2013-03-10 13:30:00,
2013-03-10 06:36:00,39.5,32.6,30.29,East,88,0.0,0.0,76,0.00,,,0.00,Wunderground v.1.15,2013-03-10 13:36:00,
2013-03-10 06:42:00,39.4,32.5,30.29,East,88,0.0,0.0,76,0.00,,,0.00,Wunderground v.1.15,2013-03-10 13:42:00,
2013-03-10 06:48:00,39.3,32.0,30.29,East,88,0.0,0.0,75,0.00,,,0.00,Wunderground v.1.15,2013-03-10 13:48:00,
2013-03-10 06:54:00,39.2,32.3,30.29,East,88,0.0,0.0,76,0.00,,,0.00,Wunderground v.1.15,2013-03-10 13:54:00,
2013-03-10 07:00:00,39.2,32.6,30.29,East,88,0.0,0.0,77,0.00,,,0.00,Wunderground v.1.15,2013-03-10 14:00:00,
2013-03-10 07:06:00,39.3,32.7,30.29,East,88,0.0,0.0,77,0.00,,,0.00,Wunderground v.1.15,2013-03-10 14:06:00,
2013-03-10 07:12:00,39.5,33.2,30.29,East,88,0.0,0.0,78,0.00,,,0.00,Wunderground v.1.15,2013-03-10 14:12:00,
2013-03-10 07:18:00,39.6,33.3,30.30,East,88,0.0,0.0,78,0.00,,,0.00,Wunderground v.1.15,2013-03-10 14:18:00,
2013-03-10 07:24:00,39.6,33.3,30.31,East,88,0.0,0.0,78,0.00,,,0.00,Wunderground v.1.15,2013-03-10 14:24:00,
2013-03-10 07:30:00,39.5,33.8,30.31,East,88,0.0,0.0,80,0.00,,,0.00,Wunderground v.1.15,2013-03-10 14:30:00,
2013-03-10 07:36:00,39.5,33.8,30.31,East,88,0.0,0.0,80,0.00,,,0.00,Wunderground v.1.15,2013-03-10 14:36:00,
2013-03-10 07:42:00,39.4,33.7,30.31,East,88,0.0,0.0,80,0.00,,,0.00,Wunderground v.1.15,2013-03-10 14:42:00,
2013-03-10 07:48:00,39.4,33.7,30.31,East,88,0.0,0.0,80,0.00,,,0.00,Wunderground v.1.15,2013-03-10 14:48:00,
2013-03-10 07:54:00,39.5,33.8,30.31,East,88,0.0,0.0,80,0.00,,,0.00,Wunderground v.1.15,2013-03-10 14:54:00,
2013-03-10 08:00:00,39.7,34.0,30.31,East,88,0.0,0.0,80,0.00,,,0.00,Wunderground v.1.15,2013-03-10 15:00:00,
2013-03-10 08:06:00,39.8,34.1,30.31,East,88,0.0,0.0,80,0.00,,,0.00,Wunderground v.1.15,2013-03-10 15:06:00,
2013-03-10 08:12:00,39.9,34.5,30.31,East,88,0.0,0.0,81,0.00,,,0.00,Wunderground v.1.15,2013-03-10 15:12:00,
2013-03-10 08:18:00,40.5,34.8,30.31,East,88,0.0,0.0,80,0.00,,,0.00,Wunderground v.1.15,2013-03-10 15:18:00,
2013-03-10 08:24:00,41.0,35.0,30.31,East,88,0.0,0.0,79,0.00,,,0.00,Wunderground v.1.15,2013-03-10 15:24:00,
2013-03-10 08:30:00,41.6,35.6,30.30,East,88,0.0,0.0,79,0.00,,,0.00,Wunderground v.1.15,2013-03-10 15:30:00,
2013-03-10 08:36:00,42.3,36.3,30.30,East,88,0.0,0.0,79,0.00,,,0.00,Wunderground v.1.15,2013-03-10 15:36:00,
2013-03-10 08:42:00,43.2,37.1,30.31,NNE,17,0.0,0.0,79,0.00,,,0.00,Wunderground v.1.15,2013-03-10 15:42:00,
2013-03-10 08:48:00,44.1,37.3,30.31,North,5,0.0,0.0,77,0.00,,,0.00,Wunderground v.1.15,2013-03-10 15:48:00,
2013-03-10 08:54:00,44.5,38.1,30.31,NNE,12,0.0,0.0,78,0.00,,,0.00,Wunderground v.1.15,2013-03-10 15:54:00,
2013-03-10 09:00:00,45.1,38.3,30.31,North,11,0.0,0.0,77,0.00,,,0.00,Wunderground v.1.15,2013-03-10 16:00:00,
2013-03-10 09:06:00,45.6,38.8,30.31,NNE,12,0.0,0.0,77,0.00,,,0.00,Wunderground v.1.15,2013-03-10 16:06:00,
2013-03-10 09:12:00,46.3,38.8,30.31,NNE,12,0.0,0.0,75,0.00,,,0.00,Wunderground v.1.15,2013-03-10 16:12:00,
2013-03-10 09:18:00,47.1,38.9,30.31,North,355,0.0,0.0,73,0.00,,,0.00,Wunderground v.1.15,2013-03-10 16:18:00,
2013-03-10 09:24:00,48.1,39.5,30.31,NW,307,0.0,0.0,72,0.00,,,0.00,Wunderground v.1.15,2013-03-10 16:24:00,
2013-03-10 09:30:00,48.5,39.5,30.32,NW,308,0.0,0.0,71,0.00,,,0.00,Wunderground v.1.15,2013-03-10 16:30:00,
2013-03-10 09:36:00,49.2,40.2,30.31,NW,308,0.0,0.0,71,0.00,,,0.00,Wunderground v.1.15,2013-03-10 16:36:00,
2013-03-10 09:42:00,50.0,41.0,30.31,WNW,302,0.0,0.0,71,0.00,,,0.00,Wunderground v.1.15,2013-03-10 16:42:00,
2013-03-10 09:48:00,50.9,41.8,30.31,SSE,168,0.0,1.0,71,0.00,,,0.00,Wunderground v.1.15,2013-03-10 16:48:00,
2013-03-10 09:54:00,52.0,42.9,30.31,South,182,0.0,1.0,71,0.00,,,0.00,Wunderground v.1.15,2013-03-10 16:54:00,
2013-03-10 10:00:00,53.2,43.3,30.31,WSW,250,1.0,1.0,69,0.00,,,0.00,Wunderground v.1.15,2013-03-10 17:00:00,
2013-03-10 10:06:00,54.1,43.8,30.31,SSW,198,1.0,1.0,68,0.00,,,0.00,Wunderground v.1.15,2013-03-10 17:06:00,
2013-03-10 10:12:00,55.0,43.4,30.31,South,169,1.0,2.0,65,0.00,,,0.00,Wunderground v.1.15,2013-03-10 17:12:00,
2013-03-10 10:18:00,55.6,43.6,30.31,SSE,147,2.0,3.0,64,0.00,,,0.00,Wunderground v.1.15,2013-03-10 17:18:00,
2013-03-10 10:24:00,56.1,43.7,30.31,SE,140,2.0,4.0,63,0.00,,,0.00,Wunderground v.1.15,2013-03-10 17:24:00,
2013-03-10 10:30:00,56.5,43.6,30.31,SE,140,1.0,1.0,62,0.00,,,0.00,Wunderground v.1.15,2013-03-10 17:30:00,
2013-03-10 10:36:00,56.9,44.0,30.31,SSE,166,1.0,2.0,62,0.00,,,0.00,Wunderground v.1.15,2013-03-10 17:36:00,
2013-03-10 10:42:00,57.2,43.9,30.31,SSE,161,2.0,4.0,61,0.00,,,0.00,Wunderground v.1.15,2013-03-10 17:42:00,
2013-03-10 10:48:00,57.4,44.1,30.31,SE,134,2.0,4.0,61,0.00,,,0.00,Wunderground v.1.15,2013-03-10 17:48:00,
2013-03-10 10:54:00,57.9,44.1,30.31,SSE,163,1.0,2.0,60,0.00,,,0.00,Wunderground v.1.15,2013-03-10 17:54:00,
2013-03-10 11:00:00,58.1,43.8,30.30,South,187,1.0,1.0,59,0.00,,,0.00,Wunderground v.1.15,2013-03-10 18:00:00,
2013-03-10 11:06:00,58.3,44.0,30.30,South,188,1.0,4.0,59,0.00,,,0.00,Wunderground v.1.15,2013-03-10 18:06:00,
2013-03-10 11:12:00,58.7,44.4,30.30,South,176,1.0,1.0,59,0.00,,,0.00,Wunderground v.1.15,2013-03-10 18:12:00,
2013-03-10 11:18:00,58.9,44.1,30.30,SSW,199,1.0,2.0,58,0.00,,,0.00,Wunderground v.1.15,2013-03-10 18:18:00,
2013-03-10 11:24:00,58.9,44.6,30.30,SE,139,2.0,5.0,59,0.00,,,0.00,Wunderground v.1.15,2013-03-10 18:24:00,
2013-03-10 11:30:00,59.0,44.2,30.30,SE,140,1.0,2.0,58,0.00,,,0.00,Wunderground v.1.15,2013-03-10 18:30:00,
2013-03-10 11:36:00,59.3,45.0,30.30,SSE,147,1.0,6.0,59,0.00,,,0.00,Wunderground v.1.15,2013-03-10 18:36:00,
2013-03-10 11:42:00,59.7,44.4,30.30,South,175,1.0,1.0,57,0.00,,,0.00,Wunderground v.1.15,2013-03-10 18:42:00,
2013-03-10 11:48:00,59.5,44.7,30.30,South,183,1.0,1.0,58,0.00,,,0.00,Wunderground v.1.15,2013-03-10 18:48:00,
2013-03-10 11:54:00,60.0,45.2,30.30,ESE,119,0.0,1.0,58,0.00,,,0.00,Wunderground v.1.15,2013-03-10 18:54:00,
2013-03-10 12:00:00,60.5,45.2,30.30,South,177,1.0,1.0,57,0.00,,,0.00,Wunderground v.1.15,2013-03-10 19:00:00,
2013-03-10 12:06:00,61.0,45.2,30.30,South,178,1.0,2.0,56,0.00,,,0.00,Wunderground v.1.15,2013-03-10 19:06:00,
2013-03-10 12:12:00,61.1,45.3,30.30,South,182,1.0,2.0,56,0.00,,,0.00,Wunderground v.1.15,2013-03-10 19:12:00,
2013-03-10 12:18:00,61.6,45.7,30.30,SSE,161,1.0,2.0,56,0.00,,,0.00,Wunderground v.1.15,2013-03-10 19:18:00,
2013-03-10 12:24:00,62.0,45.2,30.30,South,179,1.0,1.0,54,0.00,,,0.00,Wunderground v.1.15,2013-03-10 19:24:00,
2013-03-10 12:30:00,62.3,45.4,30.29,SSE,148,1.0,1.0,54,0.00,,,0.00,Wunderground v.1.15,2013-03-10 19:30:00,
2013-03-10 12:36:00,62.0,45.6,30.28,SW,235,1.0,6.0,55,0.00,,,0.00,Wunderground v.1.15,2013-03-10 19:36:00,
2013-03-10 12:42:00,62.0,45.2,30.28,SSE,161,1.0,1.0,54,0.00,,,0.00,Wunderground v.1.15,2013-03-10 19:42:00,
2013-03-10 12:48:00,61.9,45.1,30.28,South,174,1.0,1.0,54,0.00,,,0.00,Wunderground v.1.15,2013-03-10 19:48:00,
2013-03-10 12:54:00,61.8,44.5,30.28,SW,224,1.0,4.0,53,0.00,,,0.00,Wunderground v.1.15,2013-03-10 19:54:00,
2013-03-10 13:00:00,62.1,45.2,30.27,South,173,1.0,2.0,54,0.00,,,0.00,Wunderground v.1.15,2013-03-10 20:00:00,
2013-03-10 13:06:00,62.7,45.8,30.26,East,82,1.0,3.0,54,0.00,,,0.00,Wunderground v.1.15,2013-03-10 20:06:00,
2013-03-10 13:12:00,63.4,44.4,30.27,SSW,202,1.0,2.0,50,0.00,,,0.00,Wunderground v.1.15,2013-03-10 20:12:00,
2013-03-10 13:18:00,63.7,45.7,30.26,South,175,1.0,2.0,52,0.00,,,0.00,Wunderground v.1.15,2013-03-10 20:18:00,
2013-03-10 13:24:00,63.5,45.0,30.26,SSE,160,1.0,7.0,51,0.00,,,0.00,Wunderground v.1.15,2013-03-10 20:24:00,
2013-03-10 13:30:00,63.8,45.8,30.26,SSW,198,1.0,1.0,52,0.00,,,0.00,Wunderground v.1.15,2013-03-10 20:30:00,
2013-03-10 13:36:00,64.2,45.2,30.26,South,175,1.0,5.0,50,0.00,,,0.00,Wunderground v.1.15,2013-03-10 20:36:00,
2013-03-10 13:42:00,63.9,45.4,30.26,WSW,250,1.0,3.0,51,0.00,,,0.00,Wunderground v.1.15,2013-03-10 20:42:00,
2013-03-10 13:48:00,63.8,46.3,30.25,South,180,1.0,3.0,53,0.00,,,0.00,Wunderground v.1.15,2013-03-10 20:48:00,
2013-03-10 13:54:00,63.7,45.7,30.25,South,175,1.0,3.0,52,0.00,,,0.00,Wunderground v.1.15,2013-03-10 20:54:00,
2013-03-10 14:00:00,64.0,46.0,30.25,SE,126,1.0,1.0,52,0.00,,,0.00,Wunderground v.1.15,2013-03-10 21:00:00,
2013-03-10 14:06:00,64.7,46.1,30.25,SSE,167,1.0,1.0,51,0.00,,,0.00,Wunderground v.1.15,2013-03-10 21:06:00,
2013-03-10 14:12:00,64.9,46.3,30.25,South,186,1.0,3.0,51,0.00,,,0.00,Wunderground v.1.15,2013-03-10 21:12:00,
2013-03-10 14:18:00,64.8,44.6,30.24,SSE,167,2.0,3.0,48,0.00,,,0.00,Wunderground v.1.15,2013-03-10 21:18:00,
2013-03-10 14:24:00,64.9,45.3,30.24,SSW,193,1.0,2.0,49,0.00,,,0.00,Wunderground v.1.15,2013-03-10 21:24:00,
2013-03-10 14:30:00,65.5,46.4,30.24,South,184,1.0,1.0,50,0.00,,,0.00,Wunderground v.1.15,2013-03-10 21:30:00,
2013-03-10 14:36:00,65.7,46.5,30.24,SE,144,1.0,8.0,50,0.00,,,0.00,Wunderground v.1.15,2013-03-10 21:36:00,
2013-03-10 14:42:00,65.6,47.0,30.24,SSE,150,1.0,3.0,51,0.00,,,0.00,Wunderground v.1.15,2013-03-10 21:42:00,
2013-03-10 14:48:00,65.8,46.1,30.24,SE,143,1.0,5.0,49,0.00,,,0.00,Wunderground v.1.15,2013-03-10 21:48:00,
2013-03-10 14:54:00,65.6,45.4,30.24,South,175,1.0,1.0,48,0.00,,,0.00,Wunderground v.1.15,2013-03-10 21:54:00,
2013-03-10 15:00:00,65.4,45.7,30.24,South,169,2.0,2.0,49,0.00,,,0.00,Wunderground v.1.15,2013-03-10 22:00:00,
2013-03-10 15:06:00,65.9,45.6,30.24,SSE,165,2.0,2.0,48,0.00,,,0.00,Wunderground v.1.15,2013-03-10 22:06:00,
2013-03-10 15:12:00,66.2,45.4,30.24,South,183,1.0,3.0,47,0.00,,,0.00,Wunderground v.1.15,2013-03-10 22:12:00,
2013-03-10 15:18:00,66.3,45.5,30.24,South,173,1.0,3.0,47,0.00,,,0.00,Wunderground v.1.15,2013-03-10 22:18:00,
2013-03-10 15:24:00,66.5,44.5,30.24,SSW,209,1.0,1.0,45,0.00,,,0.00,Wunderground v.1.15,2013-03-10 22:24:00,
2013-03-10 15:30:00,66.6,45.2,30.24,South,190,1.0,1.0,46,0.00,,,0.00,Wunderground v.1.15,2013-03-10 22:30:00,
2013-03-10 15:36:00,66.8,44.8,30.24,NNW,342,1.0,6.0,45,0.00,,,0.00,Wunderground v.1.15,2013-03-10 22:36:00,
2013-03-10 15:42:00,67.0,43.8,30.24,North,351,1.0,2.0,43,0.00,,,0.00,Wunderground v.1.15,2013-03-10 22:42:00,
2013-03-10 15:48:00,66.4,45.0,30.24,SW,214,1.0,2.0,46,0.00,,,0.00,Wunderground v.1.15,2013-03-10 22:48:00,
2013-03-10 15:54:00,66.9,45.4,30.24,South,172,1.0,2.0,46,0.00,,,0.00,Wunderground v.1.15,2013-03-10 22:54:00,
2013-03-10 16:00:00,66.8,45.3,30.24,SSW,194,2.0,2.0,46,0.00,,,0.00,Wunderground v.1.15,2013-03-10 23:00:00,
2013-03-10 16:06:00,67.0,45.5,30.24,South,180,1.0,2.0,46,0.00,,,0.00,Wunderground v.1.15,2013-03-10 23:06:00,
2013-03-10 16:12:00,67.2,44.5,30.24,West,265,0.0,2.0,44,0.00,,,0.00,Wunderground v.1.15,2013-03-10 23:12:00,
2013-03-10 16:18:00,66.8,44.8,30.24,NW,317,1.0,2.0,45,0.00,,,0.00,Wunderground v.1.15,2013-03-10 23:18:00,
2013-03-10 16:24:00,66.1,44.1,30.24,South,176,1.0,1.0,45,0.00,,,0.00,Wunderground v.1.15,2013-03-10 23:24:00,
2013-03-10 16:30:00,65.8,44.4,30.24,SSE,163,1.0,1.0,46,0.00,,,0.00,Wunderground v.1.15,2013-03-10 23:30:00,
2013-03-10 16:36:00,65.8,45.0,30.23,South,169,1.0,8.0,47,0.00,,,0.00,Wunderground v.1.15,2013-03-10 23:36:00,
2013-03-10 16:42:00,65.8,45.0,30.23,NNW,342,1.0,1.0,47,0.00,,,0.00,Wunderground v.1.15,2013-03-10 23:42:00,
2013-03-10 16:48:00,65.6,43.7,30.23,South,178,1.0,1.0,45,0.00,,,0.00,Wunderground v.1.15,2013-03-10 23:48:00,
2013-03-10 16:54:00,65.2,43.9,30.22,WSW,241,0.0,1.0,46,0.00,,,0.00,Wunderground v.1.15,2013-03-10 23:54:00,
2013-03-10 17:00:00,64.9,44.7,30.22,South,184,1.0,1.0,48,0.00,,,0.00,Wunderground v.1.15,2013-03-11 00:00:00,
2013-03-10 17:06:00,64.6,44.5,30.22,SSE,153,1.0,1.0,48,0.00,,,0.00,Wunderground v.1.15,2013-03-11 00:06:00,
2013-03-10 17:12:00,64.5,44.4,30.22,SSE,161,1.0,1.0,48,0.00,,,0.00,Wunderground v.1.15,2013-03-11 00:12:00,
2013-03-10 17:18:00,64.5,44.4,30.22,SSW,207,1.0,2.0,48,0.00,,,0.00,Wunderground v.1.15,2013-03-11 00:18:00,
2013-03-10 17:24:00,64.4,44.8,30.22,SSW,210,1.0,1.0,49,0.00,,,0.00,Wunderground v.1.15,2013-03-11 00:24:00,
2013-03-10 17:30:00,64.3,44.2,30.21,South,179,0.0,0.0,48,0.00,,,0.00,Wunderground v.1.15,2013-03-11 00:30:00,
2013-03-10 17:36:00,64.2,44.6,30.21,South,171,0.0,5.0,49,0.00,,,0.00,Wunderground v.1.15,2013-03-11 00:36:00,
2013-03-10 17:42:00,64.1,44.5,30.21,SSE,167,0.0,1.0,49,0.00,,,0.00,Wunderground v.1.15,2013-03-11 00:42:00,
2013-03-10 17:48:00,64.0,45.0,30.21,South,189,1.0,1.0,50,0.00,,,0.00,Wunderground v.1.15,2013-03-11 00:48:00,
2013-03-10 17:54:00,63.8,44.8,30.21,SSE,165,0.0,1.0,50,0.00,,,0.00,Wunderground v.1.15,2013-03-11 00:54:00,
2013-03-10 18:00:00,63.7,44.7,30.21,SSW,196,0.0,0.0,50,0.00,,,0.00,Wunderground v.1.15,2013-03-11 01:00:00,
2013-03-10 18:06:00,63.5,44.5,30.21,SSE,167,1.0,2.0,50,0.00,,,0.00,Wunderground v.1.15,2013-03-11 01:06:00,
2013-03-10 18:12:00,63.3,44.3,30.21,South,173,1.0,1.0,50,0.00,,,0.00,Wunderground v.1.15,2013-03-11 01:12:00,
2013-03-10 18:18:00,63.2,44.2,30.21,South,171,0.0,1.0,50,0.00,,,0.00,Wunderground v.1.15,2013-03-11 01:18:00,
2013-03-10 18:24:00,63.1,44.2,30.21,SSE,148,0.0,1.0,50,0.00,,,0.00,Wunderground v.1.15,2013-03-11 01:24:00,
2013-03-10 18:30:00,62.9,44.0,30.21,SSE,148,0.0,0.0,50,0.00,,,0.00,Wunderground v.1.15,2013-03-11 01:30:00,
2013-03-10 18:36:00,62.7,44.3,30.22,South,174,0.0,5.0,51,0.00,,,0.00,Wunderground v.1.15,2013-03-11 01:36:00,
2013-03-10 18:42:00,62.5,44.6,30.22,SSW,198,0.0,0.0,52,0.00,,,0.00,Wunderground v.1.15,2013-03-11 01:42:00,
2013-03-10 18:48:00,62.3,43.9,30.22,SSW,198,0.0,0.0,51,0.00,,,0.00,Wunderground v.1.15,2013-03-11 01:48:00,
2013-03-10 18:54:00,62.1,44.3,30.21,SSW,198,0.0,0.0,52,0.00,,,0.00,Wunderground v.1.15,2013-03-11 01:54:00,
2013-03-10 19:00:00,61.8,44.5,30.21,SSW,198,0.0,0.0,53,0.00,,,0.00,Wunderground v.1.15,2013-03-11 02:00:00,
2013-03-10 19:06:00,61.4,44.6,30.21,SSW,198,0.0,0.0,54,0.00,,,0.00,Wunderground v.1.15,2013-03-11 02:06:00,
2013-03-10 19:12:00,61.0,45.2,30.21,SSW,198,0.0,0.0,56,0.00,,,0.00,Wunderground v.1.15,2013-03-11 02:12:00,
2013-03-10 19:18:00,60.3,44.5,30.21,SSW,198,0.0,0.0,56,0.00,,,0.00,Wunderground v.1.15,2013-03-11 02:18:00,
2013-03-10 19:24:00,59.8,45.0,30.21,SSW,198,0.0,0.0,58,0.00,,,0.00,Wunderground v.1.15,2013-03-11 02:24:00,
2013-03-10 19:30:00,59.2,44.4,30.21,SSW,198,0.0,0.0,58,0.00,,,0.00,Wunderground v.1.15,2013-03-11 02:30:00,
2013-03-10 19:36:00,58.7,44.0,30.21,SSW,198,0.0,5.0,58,0.00,,,0.00,Wunderground v.1.15,2013-03-11 02:36:00,
2013-03-10 19:42:00,58.3,44.5,30.21,SSW,198,0.0,0.0,60,0.00,,,0.00,Wunderground v.1.15,2013-03-11 02:42:00,
2013-03-10 19:48:00,57.8,44.4,30.22,SSW,198,0.0,0.0,61,0.00,,,0.00,Wunderground v.1.15,2013-03-11 02:48:00,
2013-03-10 19:54:00,57.3,44.4,30.22,SSW,198,0.0,0.0,62,0.00,,,0.00,Wunderground v.1.15,2013-03-11 02:54:00,
2013-03-10 20:00:00,56.8,44.7,30.22,SSW,198,0.0,0.0,64,0.00,,,0.00,Wunderground v.1.15,2013-03-11 03:00:00,
2013-03-10 20:06:00,56.4,44.4,30.22,SSW,198,0.0,0.0,64,0.00,,,0.00,Wunderground v.1.15,2013-03-11 03:06:00,
2013-03-10 20:12:00,56.0,44.4,30.22,SSW,198,0.0,0.0,65,0.00,,,0.00,Wunderground v.1.15,2013-03-11 03:12:00,
2013-03-10 20:18:00,55.7,44.5,30.22,SSW,198,0.0,0.0,66,0.00,,,0.00,Wunderground v.1.15,2013-03-11 03:18:00,
2013-03-10 20:24:00,55.3,44.5,30.22,SSW,198,0.0,0.0,67,0.00,,,0.00,Wunderground v.1.15,2013-03-11 03:24:00,
2013-03-10 20:30:00,54.9,44.1,30.21,SSW,198,0.0,0.0,67,0.00,,,0.00,Wunderground v.1.15,2013-03-11 03:30:00,
2013-03-10 20:38:00,54.4,44.1,30.21,SSW,198,0.0,0.0,68,0.00,,,0.00,Wunderground v.1.15,2013-03-11 03:38:00,
2013-03-10 20:44:00,54.0,44.1,30.22,SSW,198,0.0,0.0,69,0.00,,,0.00,Wunderground v.1.15,2013-03-11 03:44:00,
2013-03-10 20:50:00,53.7,44.1,30.22,SSW,198,0.0,0.0,70,0.00,,,0.00,Wunderground v.1.15,2013-03-11 03:50:00,
2013-03-10 20:56:00,53.5,44.3,30.22,SSW,198,0.0,0.0,71,0.00,,,0.00,Wunderground v.1.15,2013-03-11 03:56:00,
2013-03-10 21:00:00,53.3,43.8,30.22,SSW,198,0.0,0.0,70,0.00,,,0.00,Wunderground v.1.15,2013-03-11 04:00:00,
2013-03-10 21:04:00,53.2,43.7,30.22,SSW,198,0.0,0.0,70,0.00,,,0.00,Wunderground v.1.15,2013-03-11 04:04:00,
2013-03-10 21:08:00,53.1,43.6,30.22,SSW,198,0.0,0.0,70,0.00,,,0.00,Wunderground v.1.15,2013-03-11 04:08:00,
2013-03-10 21:14:00,52.9,43.7,30.22,SSW,198,0.0,0.0,71,0.00,,,0.00,Wunderground v.1.15,2013-03-11 04:14:00,
2013-03-10 21:20:00,52.7,43.6,30.22,SSW,198,0.0,0.0,71,0.00,,,0.00,Wunderground v.1.15,2013-03-11 04:20:00,
2013-03-10 21:26:00,52.5,43.4,30.22,SSW,198,0.0,0.0,71,0.00,,,0.00,Wunderground v.1.15,2013-03-11 04:26:00,
2013-03-10 21:32:00,52.3,43.5,30.21,SSW,198,0.0,0.0,72,0.00,,,0.00,Wunderground v.1.15,2013-03-11 04:32:00,
2013-03-10 21:38:00,52.0,43.6,30.22,SSW,198,0.0,0.0,73,0.00,,,0.00,Wunderground v.1.15,2013-03-11 04:38:00,
2013-03-10 21:44:00,51.9,43.9,30.22,SSW,198,0.0,0.0,74,0.00,,,0.00,Wunderground v.1.15,2013-03-11 04:44:00,
2013-03-10 21:50:00,51.7,43.7,30.22,SSW,198,0.0,0.0,74,0.00,,,0.00,Wunderground v.1.15,2013-03-11 04:50:00,
2013-03-10 21:56:00,51.7,43.7,30.22,SSW,198,0.0,0.0,74,0.00,,,0.00,Wunderground v.1.15,2013-03-11 04:56:00,
2013-03-10 22:02:00,51.6,43.6,30.22,SSW,198,0.0,0.0,74,0.00,,,0.00,Wunderground v.1.15,2013-03-11 05:02:00,
2013-03-10 22:08:00,51.5,43.5,30.22,SSW,198,0.0,0.0,74,0.00,,,0.00,Wunderground v.1.15,2013-03-11 05:08:00,
2013-03-10 22:14:00,51.3,43.6,30.22,SSW,198,0.0,0.0,75,0.00,,,0.00,Wunderground v.1.15,2013-03-11 05:14:00,
2013-03-10 22:20:00,51.1,43.8,30.22,SSW,198,0.0,0.0,76,0.00,,,0.00,Wunderground v.1.15,2013-03-11 05:20:00,
2013-03-10 22:26:00,51.0,43.4,30.23,SSW,198,0.0,0.0,75,0.00,,,0.00,Wunderground v.1.15,2013-03-11 05:26:00,
2013-03-10 22:32:00,50.8,43.2,30.23,SSW,198,0.0,0.0,75,0.00,,,0.00,Wunderground v.1.15,2013-03-11 05:32:00,
2013-03-10 22:38:00,50.7,43.1,30.23,SSW,198,0.0,0.0,75,0.00,,,0.00,Wunderground v.1.15,2013-03-11 05:38:00,
2013-03-10 22:44:00,50.5,43.2,30.22,SSW,198,0.0,0.0,76,0.00,,,0.00,Wunderground v.1.15,2013-03-11 05:44:00,
2013-03-10 22:50:00,50.3,43.0,30.22,SSW,198,0.0,0.0,76,0.00,,,0.00,Wunderground v.1.15,2013-03-11 05:50:00,
2013-03-10 22:58:00,50.0,43.1,30.22,SSW,198,0.0,0.0,77,0.00,,,0.00,Wunderground v.1.15,2013-03-11 05:58:00,
2013-03-10 23:04:00,49.9,43.0,30.22,SSW,198,0.0,0.0,77,0.00,,,0.00,Wunderground v.1.15,2013-03-11 06:04:00,
2013-03-10 23:12:00,49.7,43.1,30.22,SSW,198,0.0,0.0,78,0.00,,,0.00,Wunderground v.1.15,2013-03-11 06:12:00,
2013-03-10 23:18:00,49.6,42.7,30.22,SSW,198,0.0,0.0,77,0.00,,,0.00,Wunderground v.1.15,2013-03-11 06:18:00,
2013-03-10 23:24:00,49.4,42.8,30.22,SSW,198,0.0,0.0,78,0.00,,,0.00,Wunderground v.1.15,2013-03-11 06:24:00,
2013-03-10 23:30:00,49.1,42.9,30.22,SSW,198,0.0,0.0,79,0.00,,,0.00,Wunderground v.1.15,2013-03-11 06:30:00,
2013-03-10 23:36:00,49.0,42.8,30.22,SSW,198,0.0,0.0,79,0.00,,,0.00,Wunderground v.1.15,2013-03-11 06:36:00,
2013-03-10 23:42:00,49.0,42.8,30.22,SSW,198,0.0,0.0,79,0.00,,,0.00,Wunderground v.1.15,2013-03-11 06:42:00,
2013-03-10 23:48:00,48.8,42.6,30.22,SSW,198,0.0,0.0,79,0.00,,,0.00,Wunderground v.1.15,2013-03-11 06:48:00,
2013-03-10 23:54:00,48.7,42.5,30.22,SSW,198,0.0,0.0,79,0.00,,,0.00,Wunderground v.1.15,2013-03-11 06:54:00,